Time,TemperatureF,DewpointF,PressureIn,WindDirection,WindDirectionDegrees,WindSpeedMPH,WindSpeedGustMPH,Humidity,HourlyPrecipIn,Conditions,Clouds,dailyrainin,SoftwareType,DateUTC
2013-04-08 00:02:00,58.0,50.0,30.09,South,183,0.0,-999.0,76,-99.99,,,0.00,weatherlink.com 1.10,2013-04-08 05:02:00,
2013-04-08 00:17:00,57.3,50.0,30.09,South,183,0.0,-999.0,77,-99.99,,,0.00,weatherlink.com 1.10,2013-04-08 05:17:00,
2013-04-08 00:32:00,56.8,50.0,30.09,South,183,0.0,-999.0,78,-99.99,,,0.00,weatherlink.com 1.10,2013-04-08 05:32:00,
2013-04-08 00:47:00,56.5,50.0,30.09,South,183,0.0,-999.0,80,-99.99,,,0.00,weatherlink.com 1.10,2013-04-08 05:47:00,
2013-04-08 01:02:00,56.8,50.0,30.09,South,183,0.0,-999.0,79,-99.99,,,0.00,weatherlink.com 1.10,2013-04-08 06:02:00,
2013-04-08 01:17:00,57.0,51.0,30.08,South,183,0.0,-999.0,79,-99.99,,,0.00,weatherlink.com 1.10,2013-04-08 06:17:00,
2013-04-08 01:32:00,57.3,51.0,30.08,South,183,0.0,-999.0,78,-99.99,,,0.00,weatherlink.com 1.10,2013-04-08 06:32:00,
2013-04-08 01:47:00,57.3,51.0,30.08,South,183,0.0,-999.0,78,-99.99,,,0.00,weatherlink.com 1.10,2013-04-08 06:47:00,
2013-04-08 02:02:00,57.5,51.0,30.08,South,183,0.0,-999.0,78,-99.99,,,0.00,weatherlink.com 1.10,2013-04-08 07:02:00,
2013-04-08 02:17:00,58.0,51.0,30.08,South,186,0.0,-999.0,77,-99.99,,,0.00,weatherlink.com 1.10,2013-04-08 07:17:00,
2013-04-08 02:32:00,57.8,51.0,30.08,South,186,0.0,-999.0,78,-99.99,,,0.00,weatherlink.com 1.10,2013-04-08 07:32:00,
2013-04-08 02:48:00,57.2,51.0,30.08,South,186,0.0,-999.0,80,-99.99,,,0.00,weatherlink.com 1.10,2013-04-08 07:48:00,
2013-04-08 03:02:00,57.4,51.0,30.08,South,186,0.0,-999.0,80,-99.99,,,0.00,weatherlink.com 1.10,2013-04-08 08:02:00,
2013-04-08 03:17:00,57.6,52.0,30.07,SSW,192,0.0,-999.0,80,-99.99,,,0.00,weatherlink.com 1.10,2013-04-08 08:17:00,
2013-04-08 03:32:00,57.3,52.0,30.07,SSW,192,2.0,-999.0,81,-99.99,,,0.00,weatherlink.com 1.10,2013-04-08 08:32:00,
2013-04-08 03:47:00,57.6,52.0,30.08,SSW,202,0.0,-999.0,81,-99.99,,,0.00,weatherlink.com 1.10,2013-04-08 08:47:00,
2013-04-08 04:02:00,57.5,52.0,30.07,SSW,203,4.0,-999.0,83,-99.99,,,0.00,weatherlink.com 1.10,2013-04-08 09:02:00,
2013-04-08 04:18:00,57.5,52.0,30.08,SSW,204,0.0,-999.0,83,-99.99,,,0.00,weatherlink.com 1.10,2013-04-08 09:18:00,
2013-04-08 04:33:00,57.1,53.0,30.08,SSW,204,0.0,-999.0,85,-99.99,,,0.00,weatherlink.com 1.10,2013-04-08 09:33:00,
2013-04-08 04:48:00,57.2,53.0,30.08,SSW,204,0.0,-999.0,85,-99.99,,,0.00,weatherlink.com 1.10,2013-04-08 09:48:00,
2013-04-08 05:03:00,57.2,53.0,30.08,SSW,206,0.0,-999.0,86,-99.99,,,0.00,weatherlink.com 1.10,2013-04-08 10:03:00,
2013-04-08 05:18:00,57.4,53.0,30.08,South,188,0.0,-999.0,86,-99.99,,,0.00,weatherlink.com 1.10,2013-04-08 10:18:00,
2013-04-08 05:33:00,57.9,54.0,30.09,SSW,195,2.0,-999.0,87,-99.99,,,0.00,weatherlink.com 1.10,2013-04-08 10:33:00,
2013-04-08 05:48:00,57.9,54.0,30.09,SSW,199,0.0,-999.0,87,-99.99,,,0.00,weatherlink.com 1.10,2013-04-08 10:48:00,
2013-04-08 06:03:00,57.5,54.0,30.10,SSW,199,1.0,-999.0,88,-99.99,,,0.00,weatherlink.com 1.10,2013-04-08 11:03:00,
2013-04-08 06:18:00,57.2,54.0,30.11,SSW,199,0.0,-999.0,88,-99.99,,,0.00,weatherlink.com 1.10,2013-04-08 11:18:00,
2013-04-08 06:33:00,56.8,54.0,30.11,South,185,0.0,-999.0,89,-99.99,,,0.00,weatherlink.com 1.10,2013-04-08 11:33:00,
2013-04-08 06:48:00,56.6,54.0,30.12,South,180,0.0,-999.0,90,-99.99,,,0.00,weatherlink.com 1.10,2013-04-08 11:48:00,
2013-04-08 07:03:00,57.0,54.0,30.12,South,179,0.0,-999.0,90,-99.99,,,0.00,weatherlink.com 1.10,2013-04-08 12:03:00,
2013-04-08 07:18:00,57.9,55.0,30.13,South,179,0.0,-999.0,89,-99.99,,,0.00,weatherlink.com 1.10,2013-04-08 12:18:00,
2013-04-08 07:33:00,59.5,56.0,30.13,SSW,192,3.0,-999.0,87,-99.99,,,0.00,weatherlink.com 1.10,2013-04-08 12:33:00,
2013-04-08 07:48:00,60.5,55.0,30.13,SSW,193,3.0,-999.0,83,-99.99,,,0.00,weatherlink.com 1.10,2013-04-08 12:48:00,
2013-04-08 08:03:00,61.6,56.0,30.14,SSW,206,6.0,-999.0,81,-99.99,,,0.00,weatherlink.com 1.10,2013-04-08 13:03:00,
2013-04-08 08:18:00,62.5,56.0,30.14,SSW,204,0.0,-999.0,78,-99.99,,,0.00,weatherlink.com 1.10,2013-04-08 13:18:00,
2013-04-08 08:33:00,63.4,56.0,30.14,SSW,211,0.0,-999.0,77,-99.99,,,0.00,weatherlink.com 1.10,2013-04-08 13:33:00,
2013-04-08 08:48:00,64.5,56.0,30.13,SSW,204,6.0,-999.0,75,-99.99,,,0.00,weatherlink.com 1.10,2013-04-08 13:48:00,
2013-04-08 09:03:00,65.3,57.0,30.14,SSW,211,9.0,-999.0,75,-99.99,,,0.00,weatherlink.com 1.10,2013-04-08 14:03:00,
2013-04-08 09:18:00,65.4,58.0,30.14,SSW,212,3.0,-999.0,76,-99.99,,,0.00,weatherlink.com 1.10,2013-04-08 14:18:00,
2013-04-08 09:33:00,65.9,58.0,30.14,SSW,205,0.0,-999.0,75,-99.99,,,0.00,weatherlink.com 1.10,2013-04-08 14:33:00,
2013-04-08 09:48:00,66.4,59.0,30.14,SW,221,0.0,-999.0,76,-99.99,,,0.00,weatherlink.com 1.10,2013-04-08 14:48:00,
2013-04-08 10:03:00,66.8,59.0,30.15,SW,223,10.0,-999.0,76,-99.99,,,0.00,weatherlink.com 1.10,2013-04-08 15:03:00,
2013-04-08 10:18:00,67.3,59.0,30.15,SW,232,2.0,-999.0,75,-99.99,,,0.00,weatherlink.com 1.10,2013-04-08 15:18:00,
2013-04-08 10:33:00,69.0,60.0,30.15,WSW,240,9.0,-999.0,72,-99.99,,,0.00,weatherlink.com 1.10,2013-04-08 15:33:00,
2013-04-08 10:48:00,68.3,58.0,30.15,SW,232,9.0,-999.0,70,-99.99,,,0.00,weatherlink.com 1.10,2013-04-08 15:48:00,
2013-04-08 11:03:00,68.7,59.0,30.15,SW,223,10.0,-999.0,71,-99.99,,,0.00,weatherlink.com 1.10,2013-04-08 16:03:00,
2013-04-08 11:18:00,68.8,59.0,30.15,WSW,246,7.0,-999.0,71,-99.99,,,0.00,weatherlink.com 1.10,2013-04-08 16:18:00,
2013-04-08 11:33:00,68.7,59.0,30.15,SW,232,4.0,-999.0,72,-99.99,,,0.00,weatherlink.com 1.10,2013-04-08 16:33:00,
2013-04-08 11:48:00,69.3,59.0,30.15,SW,225,6.0,-999.0,70,-99.99,,,0.00,weatherlink.com 1.10,2013-04-08 16:48:00,
2013-04-08 12:03:00,69.7,59.0,30.14,SSE,160,8.0,-999.0,69,-99.99,,,0.00,weatherlink.com 1.10,2013-04-08 17:03:00,
2013-04-08 12:18:00,69.3,59.0,30.14,SW,220,2.0,-999.0,70,-99.99,,,0.00,weatherlink.com 1.10,2013-04-08 17:18:00,
2013-04-08 12:33:00,71.5,61.0,30.13,SW,219,13.0,-999.0,69,-99.99,,,0.00,weatherlink.com 1.10,2013-04-08 17:33:00,
2013-04-08 12:48:00,71.5,59.0,30.13,SSW,203,5.0,-999.0,66,-99.99,,,0.00,weatherlink.com 1.10,2013-04-08 17:48:00,
2013-04-08 13:03:00,72.4,59.0,30.12,SW,220,6.0,-999.0,64,-99.99,,,0.00,weatherlink.com 1.10,2013-04-08 18:03:00,
2013-04-08 13:18:00,72.9,59.0,30.11,SW,219,8.0,-999.0,62,-99.99,,,0.00,weatherlink.com 1.10,2013-04-08 18:18:00,
2013-04-08 13:33:00,72.8,58.0,30.11,SSW,192,9.0,-999.0,60,-99.99,,,0.00,weatherlink.com 1.10,2013-04-08 18:33:00,
2013-04-08 13:48:00,72.5,58.0,30.11,SW,216,2.0,-999.0,61,-99.99,,,0.00,weatherlink.com 1.10,2013-04-08 18:48:00,
2013-04-08 14:03:00,72.6,59.0,30.10,WSW,240,5.0,-999.0,63,-99.99,,,0.00,weatherlink.com 1.10,2013-04-08 19:03:00,
2013-04-08 14:18:00,72.1,59.0,30.11,SSW,209,7.0,-999.0,63,-99.99,,,0.00,weatherlink.com 1.10,2013-04-08 19:18:00,
2013-04-08 14:33:00,73.3,58.0,30.10,SW,216,8.0,-999.0,60,-99.99,,,0.00,weatherlink.com 1.10,2013-04-08 19:33:00,
2013-04-08 14:48:00,74.1,59.0,30.10,SSW,207,13.0,-999.0,59,-99.99,,,0.00,weatherlink.com 1.10,2013-04-08 19:48:00,
2013-04-08 15:03:00,73.5,58.0,30.09,SSW,212,6.0,-999.0,58,-99.99,,,0.00,weatherlink.com 1.10,2013-04-08 20:03:00,
2013-04-08 15:18:00,74.6,59.0,30.08,SSE,166,1.0,-999.0,58,-99.99,,,0.00,weatherlink.com 1.10,2013-04-08 20:18:00,
2013-04-08 15:33:00,76.3,59.0,30.07,SSW,213,12.0,-999.0,55,-99.99,,,0.00,weatherlink.com 1.10,2013-04-08 20:33:00,
2013-04-08 16:48:00,76.2,56.0,30.06,SSE,155,1.0,-999.0,50,-99.99,,,0.00,weatherlink.com 1.10,2013-04-08 21:48:00,
2013-04-08 17:04:00,75.8,56.0,30.06,WSW,237,10.0,-999.0,50,-99.99,,,0.00,weatherlink.com 1.10,2013-04-08 22:04:00,
2013-04-08 17:19:00,76.4,56.0,30.06,South,185,9.0,-999.0,49,-99.99,,,0.00,weatherlink.com 1.10,2013-04-08 22:19:00,
2013-04-08 17:49:00,76.3,56.0,30.06,SSW,209,8.0,-999.0,49,-99.99,,,0.00,weatherlink.com 1.10,2013-04-08 22:49:00,
2013-04-08 18:04:00,75.6,56.0,30.06,South,180,4.0,-999.0,50,-99.99,,,0.00,weatherlink.com 1.10,2013-04-08 23:04:00,
2013-04-08 18:34:00,74.6,55.0,30.06,SSW,202,5.0,-999.0,51,-99.99,,,0.00,weatherlink.com 1.10,2013-04-08 23:34:00,
2013-04-08 18:49:00,74.3,56.0,30.05,SSE,157,0.0,-999.0,53,-99.99,,,0.00,weatherlink.com 1.10,2013-04-08 23:49:00,
2013-04-08 19:04:00,73.2,55.0,30.05,SSW,192,1.0,-999.0,54,-99.99,,,0.00,weatherlink.com 1.10,2013-04-09 00:04:00,
2013-04-08 19:19:00,72.0,55.0,30.06,SE,128,0.0,-999.0,55,-99.99,,,0.00,weatherlink.com 1.10,2013-04-09 00:19:00,
2013-04-08 19:34:00,70.7,55.0,30.06,SSW,195,0.0,-999.0,58,-99.99,,,0.00,weatherlink.com 1.10,2013-04-09 00:34:00,
2013-04-08 19:49:00,69.8,55.0,30.06,SSW,195,0.0,-999.0,60,-99.99,,,0.00,weatherlink.com 1.10,2013-04-09 00:49:00,
2013-04-08 20:04:00,68.9,55.0,30.07,SSW,195,0.0,-999.0,61,-99.99,,,0.00,weatherlink.com 1.10,2013-04-09 01:04:00,
2013-04-08 20:19:00,68.3,55.0,30.07,SSW,195,0.0,-999.0,62,-99.99,,,0.00,weatherlink.com 1.10,2013-04-09 01:19:00,
2013-04-08 21:04:00,66.2,55.0,30.08,SSE,160,0.0,-999.0,67,-99.99,,,0.00,weatherlink.com 1.10,2013-04-09 02:04:00,
2013-04-08 21:19:00,65.9,55.0,30.09,SSE,156,0.0,-999.0,67,-99.99,,,0.00,weatherlink.com 1.10,2013-04-09 02:19:00,
2013-04-08 21:34:00,65.7,55.0,30.09,SSE,157,0.0,-999.0,68,-99.99,,,0.00,weatherlink.com 1.10,2013-04-09 02:34:00,
2013-04-08 21:49:00,65.6,55.0,30.09,SSE,157,0.0,-999.0,68,-99.99,,,0.00,weatherlink.com 1.10,2013-04-09 02:49:00,
2013-04-08 22:04:00,65.8,55.0,30.09,SSE,157,0.0,-999.0,69,-99.99,,,0.00,weatherlink.com 1.10,2013-04-09 03:04:00,
2013-04-08 22:19:00,66.3,55.0,30.09,South,190,0.0,-999.0,68,-99.99,,,0.00,weatherlink.com 1.10,2013-04-09 03:19:00,
2013-04-08 22:49:00,66.2,56.0,30.09,South,174,0.0,-999.0,69,-99.99,,,0.00,weatherlink.com 1.10,2013-04-09 03:49:00,
2013-04-08 23:04:00,65.9,55.0,30.09,South,171,0.0,-999.0,69,-99.99,,,0.00,weatherlink.com 1.10,2013-04-09 04:04:00,
2013-04-08 23:19:00,65.4,55.0,30.09,South,171,0.0,-999.0,70,-99.99,,,0.00,weatherlink.com 1.10,2013-04-09 04:19:00,
2013-04-08 23:34:00,64.9,56.0,30.10,South,171,0.0,-999.0,72,-99.99,,,0.00,weatherlink.com 1.10,2013-04-09 04:34:00,
2013-04-08 23:49:00,64.2,55.0,30.09,South,171,0.0,-999.0,73,-99.99,,,0.00,weatherlink.com 1.10,2013-04-09 04:49:00,